When you browse on this site, cookies collect data to enhance your experience and personalize the content and advertising you see.
Visit our Privacy Policy to learn more. By continuing to use the site, you agree to this use of cookies and data.
EN

Hourly Weather Voronchihino

Today, 29 September, Tuesday

Time Temperature Precipitation Wind Pressure Humidity
00:00 +10°C° 0 mm 1 mps 765 mmHg 74%
01:00 +9°C° 0 mm 1 mps 765 mmHg 75%
02:00 +9°C° 0 mm 1 mps 765 mmHg 75%
03:00 +9°C° 0 mm 1 mps 765 mmHg 75%
04:00 +8°C° 0 mm 1 mps 765 mmHg 75%
05:00 +8°C° 0 mm 1 mps 765 mmHg 75%
06:00 +7°C° 0 mm 0 mps 765 mmHg 76%
07:00 +10°C° 0 mm 1 mps 765 mmHg 70%
08:00 +12°C° 0 mm 1 mps 765 mmHg 64%
09:00 +13°C° 0 mm 1 mps 765 mmHg 59%
10:00 +15°C° 0 mm 1 mps 765 mmHg 55%
11:00 +16°C° 0 mm 1 mps 765 mmHg 51%
12:00 +17°C° 0 mm 2 mps 765 mmHg 47%
13:00 +18°C° 0 mm 1 mps 765 mmHg 48%
14:00 +18°C° 0 mm 1 mps 764 mmHg 50%
15:00 +18°C° 0 mm 1 mps 764 mmHg 52%
16:00 +16°C° 0 mm 1 mps 764 mmHg 57%
17:00 +14°C° 0 mm 1 mps 764 mmHg 61%
18:00 +12°C° 0 mm 1 mps 764 mmHg 66%
19:00 +12°C° 0 mm 1 mps 764 mmHg 67%
20:00 +12°C° 0 mm 1 mps 764 mmHg 68%
21:00 +11°C° 0 mm 1 mps 764 mmHg 69%
22:00 +11°C° 0 mm 1 mps 764 mmHg 70%
23:00 +11°C° 0 mm 1 mps 764 mmHg 72%

Tomorrow, 30 September, Wednesday

Time Temperature Precipitation Wind Pressure Humidity
00:00 +10°C° 0 mm 1 mps 763 mmHg 73%
01:00 +10°C° 0 mm 1 mps 764 mmHg 74%
02:00 +10°C° 0 mm 1 mps 764 mmHg 75%
03:00 +10°C° 0 mm 1 mps 764 mmHg 76%
04:00 +9°C° 0 mm 1 mps 764 mmHg 77%
05:00 +9°C° 0 mm 1 mps 764 mmHg 77%
06:00 +9°C° 0 mm 1 mps 763 mmHg 78%
07:00 +10°C° 0 mm 1 mps 764 mmHg 74%
08:00 +12°C° 0 mm 1 mps 764 mmHg 70%
09:00 +13°C° 0 mm 1 mps 764 mmHg 67%
10:00 +14°C° 0 mm 2 mps 764 mmHg 64%
11:00 +15°C° 0 mm 2 mps 763 mmHg 61%
12:00 +16°C° 0 mm 2 mps 763 mmHg 58%
13:00 +17°C° 0 mm 2 mps 763 mmHg 60%
14:00 +17°C° 0 mm 2 mps 763 mmHg 62%
15:00 +17°C° 0 mm 2 mps 763 mmHg 63%
16:00 +15°C° 0 mm 2 mps 763 mmHg 70%
17:00 +14°C° 0 mm 2 mps 763 mmHg 77%
18:00 +13°C° 0 mm 2 mps 763 mmHg 84%
19:00 +12°C° 0 mm 2 mps 763 mmHg 86%
20:00 +12°C° 0 mm 2 mps 763 mmHg 88%
21:00 +10°C° 0 mm 2 mps 763 mmHg 89%
22:00 +10°C° 0 mm 2 mps 763 mmHg 90%
23:00 +10°C° 0 mm 2 mps 763 mmHg 90%

Day after tomorrow, 1 October, Thursday

Time Temperature Precipitation Wind Pressure Humidity
00:00 +9°C° 0 mm 2 mps 763 mmHg 90%
01:00 +9°C° 0 mm 2 mps 763 mmHg 90%
02:00 +10°C° 0 mm 1 mps 763 mmHg 90%
03:00 +10°C° 0 mm 1 mps 763 mmHg 90%
04:00 +10°C° 0 mm 1 mps 763 mmHg 90%
05:00 +9°C° 0 mm 1 mps 763 mmHg 90%
06:00 +9°C° 0 mm 1 mps 763 mmHg 90%
07:00 +11°C° 0 mm 1 mps 763 mmHg 84%
08:00 +12°C° 0 mm 1 mps 763 mmHg 78%
09:00 +14°C° 0 mm 1 mps 763 mmHg 72%
10:00 +15°C° 0 mm 1 mps 763 mmHg 68%
11:00 +16°C° 0 mm 2 mps 763 mmHg 63%
12:00 +17°C° 0 mm 2 mps 763 mmHg 59%
13:00 +17°C° 0 mm 2 mps 763 mmHg 59%
14:00 +18°C° 0 mm 1 mps 762 mmHg 59%
15:00 +18°C° 0 mm 1 mps 762 mmHg 59%
16:00 +16°C° 0 mm 1 mps 762 mmHg 64%
17:00 +14°C° 0 mm 1 mps 762 mmHg 69%
18:00 +13°C° 0 mm 1 mps 762 mmHg 74%
19:00 +12°C° 0 mm 1 mps 762 mmHg 75%
20:00 +12°C° 0 mm 1 mps 762 mmHg 77%
21:00 +11°C° 0 mm 1 mps 762 mmHg 78%
22:00 +11°C° 0 mm 1 mps 762 mmHg 78%
23:00 +11°C° 0 mm 1 mps 762 mmHg 79%

2 October, Friday

Time Temperature Precipitation Wind Pressure Humidity
00:00 +11°C° 0 mm 1 mps 762 mmHg 79%
01:00 +10°C° 0 mm 1 mps 762 mmHg 79%
02:00 +10°C° 0 mm 1 mps 762 mmHg 80%
03:00 +10°C° 0 mm 1 mps 762 mmHg 80%
04:00 +10°C° 0 mm 1 mps 762 mmHg 81%
05:00 +10°C° 0 mm 1 mps 762 mmHg 82%
06:00 +8°C° 0 mm 0 mps 762 mmHg 83%
07:00 +11°C° 0 mm 1 mps 762 mmHg 77%
08:00 +12°C° 0 mm 1 mps 762 mmHg 72%
09:00 +14°C° 0 mm 1 mps 762 mmHg 66%
10:00 +15°C° 0 mm 1 mps 762 mmHg 62%
11:00 +16°C° 0 mm 1 mps 762 mmHg 58%
12:00 +18°C° 0 mm 1 mps 762 mmHg 54%
13:00 +19°C° 0 mm 1 mps 761 mmHg 55%
14:00 +18°C° 0 mm 2 mps 761 mmHg 56%
15:00 +18°C° 0 mm 2 mps 761 mmHg 58%
16:00 +16°C° 0 mm 2 mps 761 mmHg 64%
17:00 +14°C° 0 mm 2 mps 761 mmHg 70%
18:00 +13°C° 0 mm 1 mps 761 mmHg 76%
19:00 +12°C° 0 mm 1 mps 761 mmHg 78%
20:00 +12°C° 0 mm 1 mps 761 mmHg 81%
21:00 +11°C° 0 mm 1 mps 761 mmHg 83%
22:00 +11°C° 0 mm 1 mps 761 mmHg 85%
23:00 +10°C° 0 mm 1 mps 761 mmHg 87%

3 October, Saturday

Time Temperature Precipitation Wind Pressure Humidity
00:00 +10°C° 0 mm 1 mps 761 mmHg 88%
01:00 +9°C° 0 mm 2 mps 761 mmHg 89%
02:00 +8°C° 0 mm 2 mps 761 mmHg 90%
03:00 +8°C° 0 mm 2 mps 761 mmHg 91%
04:00 +8°C° 0 mm 2 mps 761 mmHg 91%
05:00 +8°C° 0 mm 2 mps 761 mmHg 92%
06:00 +7°C° 0 mm 2 mps 761 mmHg 92%
07:00 +9°C° 0 mm 2 mps 761 mmHg 88%
08:00 +10°C° 0 mm 2 mps 761 mmHg 84%
09:00 +12°C° 0 mm 2 mps 761 mmHg 79%
10:00 +14°C° 0 mm 2 mps 761 mmHg 75%
11:00 +15°C° 0 mm 2 mps 761 mmHg 70%
12:00 +16°C° 0 mm 2 mps 761 mmHg 66%
13:00 +16°C° 0 mm 2 mps 761 mmHg 65%
14:00 +16°C° 0 mm 2 mps 761 mmHg 64%
15:00 +16°C° 0 mm 2 mps 761 mmHg 63%
16:00 +14°C° 0 mm 2 mps 761 mmHg 68%
17:00 +13°C° 0 mm 2 mps 761 mmHg 72%
18:00 +10°C° 0 mm 2 mps 761 mmHg 77%
19:00 +10°C° 0 mm 2 mps 761 mmHg 81%
20:00 +9°C° 0 mm 2 mps 762 mmHg 86%
21:00 +8°C° 0 mm 2 mps 762 mmHg 91%
22:00 +8°C° 0 mm 2 mps 762 mmHg 92%
23:00 +7°C° 0 mm 2 mps 762 mmHg 93%

4 October, Sunday

Time Temperature Precipitation Wind Pressure Humidity
00:00 +7°C° 0 mm 2 mps 762 mmHg 95%
01:00 +7°C° 0 mm 2 mps 762 mmHg 95%
02:00 +6°C° 0 mm 2 mps 762 mmHg 96%
03:00 +6°C° 0 mm 2 mps 762 mmHg 97%
04:00 +5°C° 0 mm 2 mps 763 mmHg 97%
05:00 +5°C° 0 mm 2 mps 763 mmHg 97%
06:00 +5°C° 0 mm 2 mps 763 mmHg 97%
07:00 +6°C° 0 mm 2 mps 763 mmHg 90%
08:00 +7°C° 0 mm 3 mps 763 mmHg 83%
09:00 +8°C° 0 mm 3 mps 763 mmHg 76%
10:00 +9°C° 0 mm 3 mps 763 mmHg 68%
11:00 +9°C° 0 mm 3 mps 763 mmHg 61%
12:00 +10°C° 0 mm 3 mps 763 mmHg 54%
13:00 +10°C° 0 mm 3 mps 763 mmHg 53%
14:00 +10°C° 0 mm 3 mps 763 mmHg 52%
15:00 +10°C° 0 mm 3 mps 763 mmHg 51%
16:00 +8°C° 0 mm 3 mps 763 mmHg 58%
17:00 +7°C° 0 mm 3 mps 763 mmHg 65%
18:00 +5°C° 0 mm 2 mps 763 mmHg 71%
19:00 +5°C° 0 mm 2 mps 764 mmHg 76%
20:00 +4°C° 0 mm 2 mps 764 mmHg 80%
21:00 +4°C° 0 mm 2 mps 764 mmHg 84%
22:00 +3°C° 0 mm 2 mps 764 mmHg 86%
23:00 +3°C° 0 mm 2 mps 764 mmHg 87%
Show more